This demonstration page uses our WeatherBlox Daily Observations layout. Learn more.

Left ArrowRight Arrow

Hourly Observations for May 8, 2016

Temp ( °F °C ) Dew Point ( °F °C ) Humidity (%) Winds ( mph kmh ) Pressure ( in mb ) Visibility ( mi km ) Precip ( " mm )
12:53 am 00:53 Mostly Cloudy 59 15 33 0.6 38 38 WNW 8 13 29.84 1010 10 16 N/A
1:53 am 01:53 Clear 55 12.8 34 1.1 45 45 WNW 7 11 29.86 1011 10 16 N/A
2:53 am 02:53 Clear 50 10 35 1.7 57 57 WNW 3 6 29.87 1012 10 16 N/A
3:53 am 03:53 Clear 46 7.8 41 5 83 83 N N/A 29.88 1012 10 16 N/A
4:53 am 04:53 Clear 45 7.2 40 4.4 83 83 N N/A 29.88 1012 10 16 N/A
5:53 am 05:53 Clear 42 5.6 39 3.9 89 89 WNW 3 6 29.90 1013 10 16 N/A
6:53 am 06:53 Sunny 43 6.1 40 4.4 89 89 W 3 6 29.93 1014 10 16 N/A
7:53 am 07:53 Sunny 48 8.9 41 5 77 77 W 3 6 29.96 1015 10 16 N/A
8:53 am 08:53 Sunny 53 11.7 39 3.9 59 59 N N/A 29.97 1015 10 16 N/A
9:53 am 09:53 Sunny 57 13.9 41 5 55 55 W 3 6 29.99 1016 10 16 N/A
10:53 am 10:53 Sunny 58 14.4 41 5 53 53 N N/A 30.00 1016 10 16 N/A
11:53 am 11:53 Sunny 62 16.7 43 6.1 50 50 N N/A 29.99 1016 10 16 N/A
12:53 pm 12:53 Mostly Sunny 59 15 46 7.8 62 62 WSW 8 13 30.01 1016 10 16 N/A
1:53 pm 13:53 Cloudy 57 13.9 45 7.2 64 64 WSW 12 19 30.03 1017 10 16 N/A
2:53 pm 14:53 Cloudy with Light Rain 51 10.6 48 8.9 89 89 WSW 8 13 30.02 1017 9 14 0.01 0.25
3:53 pm 15:53 Mostly Cloudy 54 12.2 47 8.3 77 77 WSW 6 9 30.00 1016 10 16 N/A
4:53 pm 16:53 Cloudy 57 13.9 48 8.9 72 72 SW 6 9 29.99 1016 10 16 N/A
5:53 pm 17:53 Mostly Cloudy 58 14.4 47 8.3 67 67 VRB 3 6 29.98 1015 10 16 N/A
6:53 pm 18:53 Cloudy 59 15 49 9.4 69 69 W 3 6 29.99 1016 10 16 N/A
7:53 pm 19:53 Mostly Cloudy 58 14.4 49 9.4 72 72 NNW 6 9 30.01 1016 10 16 N/A
8:53 pm 20:53 Cloudy 57 13.9 49 9.4 74 74 N N/A 30.01 1016 10 16 N/A
9:53 pm 21:53 Cloudy 56 13.3 50 10 81 81 E 3 6 30.01 1016 10 16 N/A
10:53 pm 22:53 Cloudy 55 12.8 49 9.4 80 80 N N/A 30.01 1016 10 16 N/A
11:53 pm 23:53 Mostly Clear 52 11.1 49 9.4 89 89 N N/A 30.01 1016 10 16 N/A

Powered by AerisWeather